Dewpoint
73 73 72 71 71 71 72 72 72 72 74 72 72 74 74 76 77 77 76 77 77 76 77 77 78 78 77 78 78 78 77 77 76 76 77 76 75 74 72 73 74 74
73 73 73 72 72 72 73 72 73 73 75 75 74 74 76 76 76 76 76 76 76 76 77 77 77 78 77 76 77 76 77 77 76 75 76 77 76 75 73 74 74 75
72 72 72 71 70 70 68 71 73 73 72 73 74 75 74 75 75 76 76 76 76 74 77 77 77 78 77 77 77 76 75 77 76 74 76 77 75 75 75 72 73 74
73 72 71 70 70 70 69 71 72 73 72 73 73 73 73 73 75 75 76 76 76 76 76 76 76 76 77 77 77 76 76 76 75 76 76 77 76 75 75 75 73 73
72 72 71 71 70 71 71 70 69 70 71 71 72 74 75 76 75 74 75 75 76 76 76 76 76 76 77 77 77 76 76 75 76 77 76 76 76 76 74 75 75 74
72 72 72 71 71 71 69 69 69 69 70 70 71 72 73 74 74 74 75 74 74 74 74 74 75 75 75 76 77 76 75 73 74 77 76 76 74 74 73 74 75 75
70 71 71 70 70 70 70 69 69 70 69 69 72 72 73 73 74 75 75 75 74 74 73 75 76 75 75 76 77 77 77 76 76 77 76 75 76 75 74 75 76 75
70 70 70 70 69 69 69 69 69 69 70 71 70 72 73 72 73 73 74 74 74 74 75 75 76 77 75 75 76 76 76 74 75 77 77 76 76 76 76 75 75 76
69 70 70 70 69 68 68 67 68 68 69 69 68 68 72 72 72 72 74 75 74 74 76 75 76 75 75 75 76 76 76 74 73 75 75 75 75 75 75 75 75 75
70 69 68 68 67 67 67 67 66 67 68 68 67 66 68 71 72 72 74 75 74 75 75 75 75 75 75 75 75 76 76 76 76 75 75 74 74 74 73 74 74 75
68 68 68 68 67 67 67 66 66 66 67 67 66 66 67 69 72 73 74 74 72 73 74 74 74 75 75 74 74 74 75 74 75 76 75 75 75 75 75 75 74 74
68 68 67 67 67 67 66 66 66 66 66 66 66 66 67 67 69 70 71 73 73 73 73 74 74 75 75 74 72 73 74 74 74 75 74 75 75 74 75 75 74 74
67 68 68 67 68 67 67 67 66 66 66 65 66 66 66 66 67 69 71 71 73 73 72 73 74 73 75 75 74 73 74 74 73 74 74 74 74 73 72 73 73 73
68 68 69 69 69 70 69 67 67 66 67 67 67 67 66 66 66 67 69 70 71 71 72 73 74 73 75 75 74 73 73 73 73 73 72 73 73 73 72 71 72 73
70 69 70 70 70 70 70 69 68 68 68 68 68 67 66 65 66 66 67 69 69 70 71 71 70 71 71 73 73 74 73 72 73 73 72 72 73 71 72 73 73 72
71 71 71 71 71 71 72 70 69 69 68 69 68 68 68 68 68 67 66 67 68 70 70 69 70 70 70 67 68 72 73 71 72 73 73 72 73 73 71 72 72 71
72 72 72 72 72 72 72 72 71 69 69 70 69 69 69 70 68 67 65 65 65 67 68 67 67 67 66 63 64 66 71 73 72 73 74 73 72 73 73 71 71 72
71 72 72 72 72 72 72 72 71 70 70 70 69 68 70 69 68 67 68 66 65 65 65 66 66 65 62 62 62 63 66 71 71 71 71 71 72 71 71 71 71 70
72 72 72 72 72 72 72 72 72 71 70 69 67 68 68 69 69 68 68 67 66 66 65 64 65 63 61 61 61 61 62 66 69 70 69 69 70 71 71 72 72 72
72 71 71 72 73 73 73 72 71 71 70 68 68 69 69 68 67 68 68 69 68 67 68 66 65 63 60 59 59 60 61 63 70 71 70 69 69 70 70 71 72 73
72 72 72 72 73 73 73 72 71 71 70 69 67 67 69 69 67 67 67 68 67 67 67 66 64 61 59 58 57 58 59 61 69 71 71 70 70 71 72 71 71 72
69 71 72 72 72 72 72 72 72 72 72 70 69 67 68 68 68 67 67 67 66 66 65 65 64 59 58 57 57 57 58 65 69 71 70 70 71 72 72 73 72 72
67 68 71 71 72 72 72 71 72 72 72 71 70 68 67 67 67 66 68 66 66 67 66 65 64 61 56 56 56 56 58 67 69 69 70 70 70 71 72 72 72 73
66 67 68 70 72 71 71 71 70 71 70 71 69 68 67 66 67 67 67 67 66 66 65 65 65 63 55 54 54 55 60 68 69 69 69 70 71 71 72 72 72 72
64 66 67 68 70 72 70 70 70 70 70 70 69 69 68 69 68 68 67 68 66 65 66 65 65 63 56 54 53 53 59 68 69 68 69 69 68 69 71 70 72 71
63 65 67 68 68 69 71 72 70 69 70 69 69 68 68 68 67 68 67 67 67 66 65 65 65 66 68 54 53 52 54 67 69 68 67 68 68 68 68 70 70 71